Location: Fort Collins
(40.5850°N, 105.0840°W)
Time: 22:51:05
(UTC-06:00)

Daily predictions for brighter satellites

Satellite Brightness Start Highest point End
(mag) Time Altitude Azimuth Time Altitude Azimuth Time Altitude Azimuth
Cosmos 2242 Rocket 3.8 20:50:52 10° N 20:55:22 79° W 20:59:47 10° S
Cosmos 1633 Rocket 4.3 20:51:29 10° SSW 20:55:42 46° W 20:59:58 10° N
NOSS 3-2 (A) 3.4 20:51:27 10° SSW 20:57:23 81° ESE 21:03:55 10° NE
Cosmos 1400 Rocket 4.4 20:54:19 10° SSW 20:58:11 41° WNW 21:02:01 10° N
Helios 1B rocket 2.7 20:58:55 10° NNE 21:02:53 46° E 21:06:49 10° S
Resurs 01 Rocket 3.1 21:04:11 10° SSW 21:08:16 38° W 21:12:25 10° NNW
SAR-Lupe-4 4.2 21:06:56 10° SE 21:10:15 38° ENE 21:13:36 10° N
USA 215 3.7 21:04:37 10° ESE 21:10:57 55° NE 21:17:19 10° NW
ATLAS 5 CENTAUR R/B 3.9 21:07:21 10° NNW 21:11:57 23° NE 21:16:52 10° E
Lacrosse 4 Rocket 3.9 21:10:23 10° NNE 21:12:03 12° NE 21:13:42 10° ENE
Cosmos 1782 4.4 21:09:27 10° NNE 21:12:26 20° ENE 21:14:58 12° ESE
Cosmos 1933 Rocket 3.9 21:09:11 10° SSW 21:13:29 68° W 21:17:49 10° N
YAOGAN 6 2.6 21:11:11 10° SSE 21:14:51 68° ENE 21:18:32 10° N
Envisat 3.5 21:10:21 10° S 21:15:22 64° W 21:20:26 10° NNW
NOSS 3-2 (C) 3.4 21:10:49 10° SSW 21:16:46 84° ESE 21:23:21 10° NE
Timation 2 Rocket 4.3 21:10:48 10° NNW 21:17:04 71° WSW 21:23:36 10° SSE
SJ-11-01 4.4 21:12:37 10° S 21:17:20 82° WSW 21:22:05 10° NNW
Cosmos 1862 Rocket 4.0 21:13:01 10° NNW 21:17:29 67° W 21:21:54 10° S
Meteor 2-3 Rocket 3.7 21:11:51 10° S 21:17:32 71° E 21:23:12 10° NNE
Cosmos 1898 Rocket 4.2 21:12:29 10° SSW 21:17:41 61° WNW 21:22:58 10° NNE
Meteor 1-26 Rocket 4.2 21:12:14 10° N 21:17:54 85° E 21:23:38 10° S
Milstar 3 4.4 21:09:35 10° SW 21:19:19 27° S 21:25:14 12° ESE
Cosmos 990 Rocket 4.1 21:18:28 10° SSW 21:23:40 86° WNW 21:28:55 10° NNE
GPS 2-04 Rocket1 3.2 21:22:50 10° WSW 21:26:12 35° S 21:28:26 17° ESE
Helios 1A 3.2 21:23:35 10° S 21:27:43 74° WSW 21:31:56 10° NNW
Cosmos 1125 Rocket 4.3 21:23:27 10° SSE 21:28:02 31° E 21:32:35 10° NE
Aureole 3 3.5 21:26:42 16° SSE 21:28:40 30° E 21:31:20 10° NNE
ARGOS 3.8 21:25:05 14° SE 21:29:19 39° ENE 21:34:16 10° N
Cosmos 2082 Rocket 4.0 21:26:49 10° NW 21:31:30 28° WSW 21:36:13 10° SSW
SAR-Lupe-1 4.1 21:28:43 15° SSE 21:31:35 61° ENE 21:35:07 10° N
ISS -3.7 21:29:14 10° SW 21:32:22 48° SE 21:35:31 10° ENE
Aureole 1 4.1 21:30:01 10° S 21:32:57 59° ESE 21:36:12 10° NNE
CENTAUR R/B 2.8 21:32:49 10° S 21:38:19 41° ESE 21:44:28 10° NE
Cosmos 1825 2.9 21:37:59 19° SE 21:40:01 33° E 21:43:27 10° NNE
Cosmos 1408 3.2 21:40:28 20° SSE 21:42:33 38° E 21:46:02 10° NNE
SL-08 RB Rocket 4.4 21:41:06 19° SE 21:43:56 39° ENE 21:48:16 10° N
COSMOS 2455 2.8 21:39:33 10° SSW 21:45:32 81° ESE 21:51:35 10° NNE
Terra 3.7 21:45:22 13° E 21:47:28 17° ENE 21:50:28 10° NNE
H-2A R/B 2.9 21:44:20 19° SE 21:47:40 38° ENE 21:52:35 10° N
Cosmos 1900 4.4 21:42:44 10° NNW 21:47:56 83° WSW 21:51:33 20° SSE
Okean 1-7 3.0 21:45:25 10° N 21:49:49 68° E 21:52:44 21° SSE
Tiangong 2 1.1 21:47:48 10° WNW 21:50:59 66° SSW 21:52:13 33° SE
Cosmos 1892 4.3 21:48:37 10° SSW 21:52:11 36° WNW 21:55:46 10° N
SPOT 5 3.4 21:49:16 20° SE 21:52:49 55° ENE 21:58:00 10° N
Meteor 1-29 4.1 21:50:20 10° N 21:53:42 45° WNW 21:57:02 10° SSW
Cosmos 1703 Rocket 3.8 21:49:52 10° NNW 21:54:17 71° W 21:57:56 14° S
DNEPR-1 R/B 3.9 21:56:06 10° SSW 22:01:21 56° ESE 22:05:50 10° NE
Cosmos 2344 3.8 21:54:54 10° S 22:02:08 47° ESE 22:09:53 10° NE
Cosmos 1733 Rocket 3.8 22:06:59 30° ESE 22:07:55 33° E 22:11:47 10° NNE
MetOp-A 4.2 22:04:05 18° S 22:08:07 75° WSW 22:13:29 10° NNW
Lacrosse 5 rocket 0.9 22:05:43 10° SW 22:09:17 87° NW 22:12:57 10° NE
Cosmos 2263 4.1 22:04:10 10° SSW 22:09:56 82° ESE 22:15:42 10° NNE
Cosmos 1943 Rocket 2.1 22:06:50 10° SSW 22:12:22 68° ESE 22:17:54 10° NNE
Cosmos 1869 Rocket 4.2 22:08:39 10° SSW 22:12:52 54° W 22:17:09 10° N
deb Kosmos-1763 4.4 22:09:14 10° N 22:12:56 53° ENE 22:13:51 41° ESE
Cosmos 158 Rocket 3.8 22:10:56 10° NNW 22:15:50 71° ENE 22:17:53 34° SE
Cosmos 1340 2.6 22:13:20 10° N 22:17:07 67° E 22:18:04 46° SE
Cosmos 2221 Rocket 4.2 22:15:52 10° NNW 22:20:11 52° W 22:23:01 20° SSW
Nimbus 7 Rocket 4.3 22:18:21 10° NNE 22:24:15 70° ESE 22:28:04 22° S
Cosmos 1606 3.1 22:20:53 10° NNW 22:24:36 59° W 22:26:04 33° SSW
Cosmos 2369 Rocket 3.0 22:21:12 10° SW 22:26:41 52° WNW 22:32:15 10° NNE
ERS-1 Rocket 4.1 22:23:22 14° SSW 22:27:16 39° W 22:31:59 10° NNW
Cosmos 1833 4.4 22:22:39 10° NNW 22:28:23 60° ENE 22:30:40 35° SE
Shenzhou-11 Module 3.6 22:26:24 10° W 22:28:25 25° SW 22:28:25 25° SW
Cosmos 1048 Rocket 4.0 22:24:53 10° NNW 22:30:14 87° WSW 22:32:24 37° SSE
DMSP B5D2-2 4.1 22:26:21 10° NNE 22:31:30 60° E 22:33:27 37° SSE
Intercosmos 25 Rocket 4.5 22:24:36 10° N 22:32:20 62° ENE 22:34:10 39° SE
Meteor 1-27 Rocket 3.7 22:29:19 10° N 22:35:08 85° E 22:37:36 36° SSE
Cosmos 2084 4.0 22:32:37 10° NW 22:36:16 42° WSW 22:37:00 37° SSW
CARTOSAT-1 3.8 22:39:25 47° ESE 22:40:02 52° ENE 22:44:15 10° N
Cosmos 1674 Rocket 3.5 22:40:37 10° N 22:44:54 61° E 22:45:20 57° ESE
GEOS 3 Rocket 3.6 22:43:40 43° SE 22:45:22 74° NE 22:50:35 10° NNW
SPOT 1/Viking Rocket 3.7 22:43:29 34° S 22:45:40 66° WSW 22:50:52 10° NNW
Cosmos 2251 Rocket 4.4 22:41:33 10° N 22:46:21 36° ENE 22:47:31 32° E
Cosmos 1378 Rocket 4.4 22:42:58 10° N 22:47:02 35° ENE 22:47:08 35° E
Cosmos 1092 Rocket 4.0 22:47:18 40° SSE 22:49:24 63° E 22:55:27 10° NNE
Lacrosse 4 Rocket 1.4 22:46:58 10° NNW 22:51:29 87° ENE 22:52:03 68° SE
Nadezhda 4 Rocket 3.9 22:48:55 30° S 22:52:14 87° W 22:58:26 10° N
USA 215 3.8 22:51:26 31° S 22:54:00 45° SW 23:00:16 10° WNW
ATLAS 5 CENTAUR R/B 2.4 22:51:14 10° NW 22:57:17 82° WSW 22:59:24 46° SSE
H-2A R/B 2.3 22:57:24 48° ENE 22:57:24 48° ENE 23:01:17 10° N
ATLAS CENTAUR R/B 3.8 23:05:54 11° ENE 23:05:54 11° ENE 23:06:03 10° NE
H-2A ROCKET BODY 4.1 23:03:39 10° SW 23:33:25 - ESE 23:05:18 19° SSW
SL-19 R/B 4.4 23:02:47 10° NNE 23:08:49 73° ESE 23:10:35 48° S
ISS -1.4 23:06:15 10° W 23:09:00 24° NNW 23:11:43 10° NNE
Landsat 7 4.3 23:08:37 44° SW 23:09:38 53° W 23:14:17 10° NNW
Meteor 1-14 Rocket 4.3 23:13:52 56° SE 23:14:46 64° E 23:20:32 10° NNE
Cosmos 1656 Rocket 3.6 23:13:09 43° SSW 23:15:01 82° WNW 23:20:34 10° NNE
ARGOS Delta rocket 4.2 23:13:39 10° NNE 23:17:17 45° ENE 23:17:17 45° ENE
Cosmos 1908 Rocket 3.5 23:18:36 86° N 23:18:36 86° N 23:22:59 10° N
Cosmos 1437 4.3 23:15:22 10° NNW 23:17:20 34° NNW 23:17:20 34° NNW
Okean 2 Rocket 4.3 23:22:31 31° ENE 23:22:31 31° ENE 23:25:26 10° NNE
Cosmos 1867 3.5 23:18:23 10° NNW 23:23:51 70° ENE 23:24:30 63° E
Okean 3 3.6 23:20:02 10° N 23:23:49 70° NW 23:23:49 70° NW
Terra 2.2 23:24:15 51° SW 23:24:45 53° W 23:29:25 10° NNW
CZ-2C R/B 4.2 23:25:43 29° ENE 23:26:01 29° ENE 23:30:16 10° N
H-2A R/B 3.7 23:24:59 21° SW 23:27:07 28° W 23:31:40 10° NW
IGS 5A 4.2 23:27:39 45° W 23:27:39 45° W 23:31:31 10° NNW
CENTAUR R/B 3.9 23:23:16 10° WSW 23:28:58 39° NW 23:35:26 10° NNE
CZ-4C R/B 4.0 23:32:15 52° NE 23:32:15 52° NE 23:35:48 10° N
Cosmos 2227 Rocket 3.5 23:30:03 10° N 23:34:51 28° NE 23:36:06 25° ENE
Cosmos 1812 3.7 23:31:16 10° N 23:34:04 45° N 23:34:04 45° N
deb Chang Zheng 4 3.7 23:31:00 10° N 23:35:14 73° NW 23:35:14 73° NW
Cosmos 2219 3.1 23:32:27 10° NNW 23:38:14 80° ENE 23:38:45 72° ESE
CZ-2C R/B 3.5 23:38:14 10° NNE 23:42:04 34° ENE 23:42:04 34° ENE
Sich 1 Rocket 4.2 23:43:27 51° WNW 23:43:27 51° WNW 23:47:45 10° N
Cosmos 1782 Rocket 3.9 23:46:17 62° NNW 23:46:17 62° NNW 23:50:00 10° N
Cosmos 1655 Rocket 3.8 23:45:17 69° SSE 23:46:03 80° E 23:52:17 10° N
Cosmos 494 Rocket 4.4 23:43:40 10° NNW 23:48:43 51° WSW 23:48:46 51° WSW
Lacrosse 5 rocket 4.2 23:46:55 10° WNW 23:49:01 15° NNW 23:51:09 10° N
Meteor 1-18 Rocket 4.1 23:45:31 10° N 23:51:15 87° W 23:51:37 79° S
Spot 4 4.2 23:53:28 56° W 23:53:28 56° W 23:58:00 10° NNW
CZ-4 R/B 4.4 23:49:39 10° N 23:54:07 49° WNW 23:54:24 48° W
Cosmos 405 Rocket 4.2 23:50:50 10° NNW 23:53:04 35° NNW 23:53:04 35° NNW
